User: anonymous   Login
Location: Unspecified
(0.0000°N, 0.0000°E)
Time: 18:25:20
(UTC+00:00)
Language:

SJ-6A - Orbit

View from above orbital plane
View from above orbital plane
View from above satellite
View from above satellite

Ground track
Ground track

The orbit data is extracted from the following two-line orbital elements,

1 28413U 04035A   18292.52441905 -.00000175  00000-0 -10831-4 0  9994
2 28413  97.7999 307.9006 0016196 187.5267 172.5730 14.94332846768352
Epoch (UTC): 19 October 2018 12:35:09
Eccentricity: 0.0016196
inclination: 97.7999°
perigee height: 573 km
apogee height: 596 km
right ascension of ascending node: 307.9006°
argument of perigee: 187.5267°
revolutions per day: 14.94332846
mean anomaly at epoch: 172.5730°
orbit number at epoch: 76835

The dashed part of the orbit path shows where the satellite is in the earth's shadow,  

DLR